Zurück zum Katalog

STARLINK-3132

AktivKommunikationVLEO
NORAD 49457·PAYLOAD·🇺🇸 United States

Gestartet Nov 13, 2021 von Cape Canaveral Space Force Station

Loading…

Nächste Überflüge (nächste 24 Stunden)

TLE

AktuellSource: CelesTrak SupGP

Epoche: Sep 14, 2026, 20:50 UTC

1 49457C 21104BB  26257.86854167  .00023761  00000+0  76426-3 0  2577
2 49457  53.1585  78.0659 0001204  82.7328  55.4758 15.31683829    11

Verfolge STARLINK-3132 in Echtzeit mit AllMySat

Download on the App Store